User: anonymous   Login
Location: Unspecified
(0.0000°N, 0.0000°E)
Time: 00:30:21
(UTC+00:00)
Language:

IRS-P3 - Orbit

View from above orbital plane
View from above orbital plane
View from above satellite
View from above satellite

Ground track
Ground track

The orbit data is extracted from the following two-line orbital elements,

1 23827U 96017A   18196.48064364 -.00000003  00000-0  18652-4 0  9995
2 23827  98.7618 136.1730 0003313   0.4965 359.6216 14.22554760158325
Epoch (UTC): 15 July 2018 11:32:07
Eccentricity: 0.0003313
inclination: 98.7618°
perigee height: 814 km
apogee height: 819 km
right ascension of ascending node: 136.1730°
argument of perigee: 0.4965°
revolutions per day: 14.22554760
mean anomaly at epoch: 359.6216°
orbit number at epoch: 15832

The dashed part of the orbit path shows where the satellite is in the earth's shadow,  

DLR